Flag for Turkey Weather past 2 weeks in Izmir, Turkey

75 °F

Passing clouds.

Feels Like: 78 °F
Forecast: 58 / 83 °F
Wind: 14 mph from North

Location: Izmir / Adnan Menderes

Current Time: Oct 9, 2015 at 1:39:03 PM

Latest Report: Oct 9, 2015 at 12:50 PM

Visibility: N/A

Pressure: 29.98 "Hg

Humidity: 44%

Dew point: 52 °F

Location of IzmirLocation

Historic Weather in Izmir — Graph


Izmir temperature yesterday

Maximum temperature yesterday: 79 °F (at 3:20 PM)
Minimum temperature yesterday: 59 °F (at 3:50 AM)
Average temperature yesterday: 69 °F

Past Weeks' High & Low Weather Summary

High90 °F (Sep 26, 1:50 PM)100% (Sep 25, 4:20 AM)30.21 "Hg (Sep 25, 4:20 AM)
Low55 °F (Oct 5, 6:50 AM)27% (Sep 26, 1:50 PM)29.74 "Hg (Oct 6, 3:50 PM)
Average70 °F67%29.97 "Hg
* Reported Sep 24 12:20 PM — Oct 9 12:20 PM, Izmir, Weather by CustomWeather, © 2015

Note: Actual official high and low records may vary slightly from our data, if they occured in-between our weather recording intervals... More about our weather records


Izmir weather history for previous 24 hours

Time TempWeatherWind HumidityBarometerVisibility
12:20 PM
Fri, Oct 9
75 °FPassing clouds.15 mph44%29.98 "HgN/A
11:50 AM75 °FPassing clouds.14 mph47%29.98 "HgN/A
11:20 AM73 °FPassing clouds.12 mph53%29.98 "HgN/A
10:50 AM72 °FSunny.14 mph53%30.01 "Hg10 mi
10:20 AM70 °FSunny.10 mph60%30.01 "Hg10 mi
9:50 AM68 °FPassing clouds.6 mph64%30.01 "HgN/A
9:20 AM66 °FSunny.2 mph68%29.98 "Hg10 mi
8:50 AM64 °FSunny.No wind73%29.98 "Hg10 mi
8:20 AM59 °FSunny.2 mph82%29.98 "Hg10 mi
7:50 AM55 °FClear.3 mph88%29.98 "Hg10 mi
7:20 AM55 °FPassing clouds.3 mph88%29.95 "HgN/A
6:50 AM59 °FClear.6 mph82%29.95 "Hg10 mi
6:20 AM59 °FClear.5 mph82%29.95 "Hg10 mi
5:50 AM57 °FPassing clouds.3 mph82%29.95 "HgN/A
5:20 AM55 °FClear.1 mph88%29.95 "Hg10 mi
4:50 AM55 °FPassing clouds.3 mph88%29.95 "HgN/A
4:20 AM59 °FPassing clouds.5 mph82%29.95 "HgN/A
3:50 AM57 °FClear.No wind82%29.95 "Hg10 mi
3:20 AM59 °FClear.2 mph77%29.95 "Hg10 mi
2:50 AM61 °FClear.1 mph77%29.95 "Hg10 mi
2:20 AM57 °FClear.1 mph82%29.95 "Hg10 mi
1:50 AM59 °FClear.5 mph77%29.95 "Hg10 mi
1:20 AM61 °FClear.6 mph77%29.95 "Hg10 mi
12:20 AM63 °FClear.No wind73%29.95 "Hg10 mi
11:50 PM
Thu, Oct 8
63 °FPassing clouds.3 mph73%29.95 "HgN/A
11:20 PM66 °FClear.5 mph64%29.95 "Hg10 mi
10:50 PM68 °FClear.7 mph60%29.95 "Hg10 mi
10:20 PM68 °FPassing clouds.6 mph60%29.95 "HgN/A
9:50 PM70 °FClear.8 mph57%29.95 "Hg10 mi
9:20 PM68 °FClear.8 mph60%29.92 "Hg10 mi
8:50 PM70 °FClear.10 mph60%29.92 "Hg10 mi
8:20 PM73 °FPassing clouds.10 mph53%29.92 "HgN/A
7:50 PM73 °FClear.14 mph50%29.89 "Hg10 mi
7:20 PM73 °FSunny.14 mph50%29.89 "Hg10 mi
6:50 PM73 °FSunny.14 mph50%29.89 "Hg10 mi
6:20 PM75 °FPassing clouds.12 mph47%29.89 "HgN/A
5:50 PM77 °FPassing clouds.13 mph42%29.89 "HgN/A
5:20 PM77 °FPassing clouds.14 mph39%29.86 "HgN/A
4:50 PM77 °FPassing clouds.14 mph39%29.86 "HgN/A
4:20 PM79 °FPassing clouds.14 mph39%29.86 "HgN/A
3:50 PM79 °FPassing clouds.14 mph39%29.86 "HgN/A
3:20 PM79 °FPassing clouds.14 mph37%29.86 "HgN/A
2:50 PM77 °FScattered clouds.15 mph39%29.86 "HgN/A
2:20 PM77 °FScattered clouds.13 mph42%29.86 "HgN/A
1:50 PM77 °FScattered clouds.14 mph42%29.89 "HgN/A
1:20 PM75 °FPartly sunny.15 mph41%29.89 "HgN/A
Weather by CustomWeather, © 2015

See weather overviewHow to use our weather pages